Regional Weather Roundup
Issued by NWS Lake Charles, LA

Home | Current Version | Previous Version | Text Only | Print | Product List | Glossary On
Versions: 1 2 3 4 5 6 7 8 9 10 11 12 13 14 15 16 17 18 19 20 21 22 23 24 25 26 27 28 29 30 31 32 33 34 35 36 37 38 39 40 41 42 43 44 45 46 47 48 49 50
317
ASUS44 KLCH 290310
RWRLCH
REGIONAL WEATHER ROUNDUP
NATIONAL WEATHER SERVICE LAKE CHARLES LA
1000 PM CDT WED SEP 28 2016

Note: "fair" indicates few or no clouds below 12,000 feet with no
significant weather and/or obstructions to visibility.


ACROSS SOUTHEAST TEXAS

CITY           SKY/WX    TMP DP  RH WIND       PRES   REMARKS
BEAUMONT       CLEAR     69  65  86 CALM      30.03R
BEAUMONT CITY  FAIR      71  64  78 CALM      30.04R
ORANGE         CLEAR     70  70 100 CALM      30.05R
JASPER         CLEAR     66  64  94 CALM      30.06S
$$

ACROSS CENTRAL LOUISIANA

CITY           SKY/WX    TMP DP  RH WIND       PRES   REMARKS
LEESVILLE      CLEAR     68  64  87 VRB2      30.03R
FULLERTON      FAIR      66  63  90 CALM      30.01R
ALEXANDRIA INT CLEAR     69  65  86 CALM      30.01R
ESLER FIELD    CLEAR     65  65 100 CALM      30.02S FOG
DERIDDER       FAIR      67  64  89 CALM      30.05R
OAKDALE        CLEAR     67  66  97 CALM      30.03R
OPELOUSAS      FAIR      69  67  93 CALM      30.02S
$$

ACROSS SOUTHWEST AND SOUTH CENTRAL LOUISIANA

CITY           SKY/WX    TMP DP  RH WIND       PRES   REMARKS
SULPHUR        CLEAR     74  70  86 CALM      30.04R
LAKE CHARLES   CLEAR     72  69  90 CALM      30.02R
CHENNAULT INT  CLEAR     77  68  73 CALM      30.01
CAMERON PHI    CLEAR     77  72  83 CALM      30.03R
DEQUINCY       FAIR      68  67  97 CALM      30.04R
JENNINGS       FAIR      73  69  89 CALM      30.02S
LAFAYETTE      CLEAR     78  68  71 NW3       30.02R
NEW IBERIA     CLEAR     75  67  76 W5        30.03R
ABBEVILLE      FAIR      73  71  93 CALM      30.03R
PATTERSON      CLEAR     74  72  93 CALM      30.03R
SALT POINT     NOT AVBL
$$

SELECTED SITES ACROSS THE REGION

CITY           SKY/WX    TMP DP  RH WIND       PRES   REMARKS
HOUSTON BUSH   PTCLDY    73  62  68 N3        30.04R
HOUSTON HOBBY  CLEAR     78  68  71 CALM      30.04R
GALVESTON      CLEAR     79  72  79 CALM      30.04R
COLLEGE STAT   CLEAR     74  61  63 CALM      30.06R
CONROE         CLEAR     66  63  90 CALM      30.05R
HUNTSVILLE     CLEAR     67  60  78 CALM      30.06R
LUFKIN         CLEAR     64  60  87 CALM      30.04R
SHREVEPORT     CLEAR     70  58  65 W6        30.02R
MONROE         CLEAR     70  60  70 SW6       30.01R
NATCHEZ MS     CLEAR     66  61  82 S3        30.01S
BATON ROUGE    CLEAR     74  69  85 W3        30.01R
N.O. INTL ARPT PTCLDY    81  70  69 W3        30.00S
SLIDELL        CLEAR     74  70  87 CALM      29.99S
$$

MARINE REPORTS

STATION/POSITION TIME  SKY/WX   TEMP    WIND        PRES    VSBY
                                AIR SEA DIR/SP/G
                 (UTC)          (F)     (DEG/KT/KT) (MB)    (MI)
BUOY 30 S HIGH I 0250            82 86  200/  4/  4 1017.2R
WVE H/P(F/S)=  1/ 5

SEA RIM ST PARK  0200            78     270/  5/  5 1017.1R
PORT ARTHUR      0200               85  300/  3/  4 1016.8R
SABINE PASS N    0200            78 86  290/  2/  5 1018.1R
TEXAS POINT      NOT AVBL
CALCASIEU PASS   0200            80 84  300/  5/  6   N/A
LK CHARLES BEACH 0200            80 83              1016.8R
MARSH ISLAND     0200            82                   N/A
FRESH WATER LOCK 0200            78 85  280/  4/  4 1017.1R
AMERADA PASS     0200            80 85  260/  2/  4 1016.0R
$$




USA.gov is the U.S. government's official web portal to all federal, state and local government web resources and services.